Location: Thessaloniki
(40.6330°N, 22.9330°E)
Time: 15:00:06
(UTC+02:00)

ISS - Visible Passes

Search period start: 18 December 2017 00:00
Search period end: 28 December 2017 00:00
Orbit: 402 x 406 km, 51.6° (Epoch: 18 December)

Date Brightness Start Highest point End Pass type
(mag) Time Alt. Az. Time Alt. Az. Time Alt. Az.
18 Dec -1.1 17:59:00 10° W 18:01:40 23° SW 18:04:20 10° S visible
25 Dec -0.8 07:01:25 10° S 07:03:56 21° SE 07:06:30 10° E visible
26 Dec -0.3 06:10:55 10° SE 06:11:49 11° SE 06:12:44 10° ESE visible
27 Dec -2.9 06:52:20 10° SW 06:55:30 51° SE 06:58:43 10° ENE visible
